This demonstration page uses our WeatherBlox Daily Observations layout. Learn more.

Left ArrowRight Arrow

Hourly Observations for March 19, 2015

Temp ( °F °C ) Dew Point ( °F °C ) Humidity (%) Winds ( mph kmh ) Pressure ( in mb ) Visibility ( mi km ) Precip ( " mm )
12:51 am 00:51 Cloudy 54 12.2 52 11.1 93 93 W 3 6 29.93 1013 10 16 0.02 0.51
1:51 am 01:51 Mostly Cloudy 54 12.2 52 11.1 93 93 Calm 29.92 1013 10 16 0.00 0.00
1:59 am 01:59 Mostly Cloudy 54 12.2 52 11.1 93 93 Calm 29.94 1014 10 16 0.00 0.00
2:51 am 02:51 Cloudy 54 12.2 52 11.1 93 93 Calm 29.91 1013 10 16 0.00 0.00
3:12 am 03:12 Cloudy 53 11.7 52 11.1 96 96 Calm 29.94 1014 10 16 0.00 0.00
3:51 am 03:51 Cloudy 54 12.2 52 11.1 93 93 Calm 29.90 1012 10 16 0.00 0.00
4:51 am 04:51 Cloudy 53 11.7 52 11.1 96 96 Calm 29.90 1012 10 16 0.00 0.00
5:51 am 05:51 Cloudy 53 11.7 52 11.1 96 96 Calm 29.90 1013 7 11 0.01 0.25
6:51 am 06:51 Cloudy with Mist and Fog 53 11.7 52 11.1 96 96 Calm 29.92 1013 5 8 0.00 0.00
7:51 am 07:51 Cloudy 54 12.2 53 11.7 97 97 Calm 29.95 1014 7 11 0.00 0.00
8:51 am 08:51 Cloudy 56 13.3 52 11.1 87 87 Calm 29.95 1014 10 16 0.00 0.00
9:51 am 09:51 Cloudy 59 15 52 11.1 78 78 VRB 3 6 29.95 1014 10 16 0.00 0.00
10:51 am 10:51 Mostly Sunny 61 16.1 51 10.6 70 70 W 5 7 29.95 1014 10 16 0.00 0.00
11:51 am 11:51 Mostly Sunny 63 17.2 49 9.4 60 60 NW 7 11 29.92 1013 10 16 0.00 0.00
12:51 pm 12:51 Mostly Sunny 65 18.3 49 9.4 56 56 W 9 15 29.89 1012 10 16 0.00 0.00
1:51 pm 13:51 Partly Cloudy 66 18.9 46 7.8 49 49 WNW 12 19 29.87 1011 10 16 0.00 0.00
2:51 pm 14:51 Cloudy 65 18.3 44 6.7 47 47 WNW 14 22 29.85 1011 10 16 0.00 0.00
3:51 pm 15:51 Partly Cloudy 67 19.4 43 6.1 42 42 NNW 10 17 29.84 1010 10 16 0.00 0.00
4:51 pm 16:51 Cloudy 66 18.9 43 6.1 43 43 W 17 28 29.85 1011 10 16 0.00 0.00
5:51 pm 17:51 Cloudy 63 17.2 45 7.2 52 52 WNW 20 31 29.87 1012 10 16 0.00 0.00
6:51 pm 18:51 Cloudy 62 16.7 45 7.2 54 54 NW 15 24 29.90 1012 10 16 0.00 0.00
7:51 pm 19:51 Cloudy 60 15.6 46 7.8 60 60 WNW 10 17 29.94 1014 10 16 0.00 0.00
8:51 pm 20:51 Cloudy 59 15 47 8.3 64 64 WNW 9 15 29.97 1015 10 16 0.00 0.00
9:51 pm 21:51 Mostly Cloudy 54 12.2 48 8.9 80 80 W 3 6 30.00 1016 10 16 0.00 0.00
10:51 pm 22:51 Mostly Clear 53 11.7 47 8.3 80 80 WNW 7 11 30.01 1016 10 16 0.00 0.00
11:51 pm 23:51 Clear 51 10.6 47 8.3 86 86 E 3 6 30.02 1017 10 16 0.00 0.00

Powered by AerisWeather